Location: Baix
(44.7118°N, 4.7648°E)
Time: 18:37:13
(UTC+00:00)

ADEOS II - Pass Details

Date: 07 August 2020
Orbit: 799 x 802 km, 98.5° (Epoch: 23 September)

Event Time Altitude Azimuth Distance (km) Brightness Sun altitude
Rises 02:18:27 0° 12° (NNE) 3,321 6.4 -19.9°
Reaches altitude 10° 02:20:47 10° 11° (N) 2,386 5.4 -19.6°
Maximum altitude 02:26:03 75° 286° (WNW) 831 2.0 -19.0°
Enters shadow 02:28:23 34° 208° (SSW) 1,295 2.6 -18.8°
